Location: Eboldshausen
(51.7766°N, 10.0050°E)
Time: 07:08:14
(UTC+00:00)

ATLAS 2AS CENTAUR R/B - Pass Details

Date: 15 November 2025
Orbit: 1047 x 1163 km, 63.7° (Epoch: 12 December)

Event Time Altitude Azimuth Distance (km) Brightness Sun altitude
Rises 16:02:20 0° 292° (WNW) 3,888 6.4 -5.4°
Reaches altitude 10° 16:05:25 10° 303° (WNW) 2,915 5.5 -5.8°
Maximum altitude 16:11:23 30° 3° (N) 1,789 3.7 -6.7°
Drops below altitude 10° 16:17:17 10° 64° (ENE) 2,870 4.3 -7.5°
Enters shadow 16:17:36 - 65° (ENE) 2,969 4.3 -7.6°
